Regional Weather Roundup
Issued by NWS

Home | Current Version | Previous Version | Graphics & Text | Print | Product List | Glossary On
Versions: 1 2 3 4 5 6 7 8 9 10 11 12 13 14 15 16 17 18 19 20 21 22 23 24 25 26 27 28 29 30 31 32 33 34 35 36 37 38 39 40 41 42 43 44 45 46 47 48 49 50
818
ASUS43 KMKX 191500
RWRWI

WISCONSIN REGIONAL WEATHER ROUNDUP
NATIONAL WEATHER SERVICE MILWAUKEE/SULLIVAN WI
900 AM CST SUN FEB 19 2017

NOTE: "FAIR" INDICATES FEW OR NO CLOUDS BELOW 12,000 FEET WITH NO
SIGNIFICANT WEATHER AND/OR OBSTRUCTIONS TO VISIBILITY.

WIZ001-002-006>008-014>016-023>028-191600-
NORTHWEST WISCONSIN

CITY           SKY/WX    TMP DP  RH WIND       PRES   REMARKS
SUPERIOR ARPT  CLOUDY    31  29  92 CALM      29.99S
ASHLAND        PTSUNNY   37  32  82 CALM      30.01R
HAYWARD        CLOUDY    34  30  85 N5        29.98S WCI  30
SIREN          CLOUDY    35  33  94 CALM      29.97S
CUMBERLAND     MOSUNNY   32  32 100 CALM      29.98R
RICE LAKE      MOSUNNY   33  32  95 CALM      30.00S
CHETEK         MOSUNNY   33  32  95 CALM      29.99S
LADYSMITH      MOSUNNY   36  33  88 CALM      30.00F
EAU CLAIRE     NOT AVBL
MENOMONIE      SUNNY     35  33  90 CALM      30.00R
NEW RICHMOND   CLOUDY    38  38  99 SE5       29.97S WCI  34
OSCEOLA        CLOUDY    38  38 100 E5        29.99S WCI  35
$$

WIZ003>005-009-010-017-018-191600-
NORTH CENTRAL WISCONSIN

CITY           SKY/WX    TMP DP  RH WIND       PRES   REMARKS
MANITOWISH WTR MOSUNNY   30  28  94 CALM      29.98R
ARBOR VITAE    MOSUNNY   34  30  85 CALM      29.99R
WOODRUFF       MOSUNNY   34  30  85 CALM      29.99R
RHINELANDER    SUNNY     38  32  79 CALM      30.00R
EAGLE RIVER    MOSUNNY   30  28  90 CALM      29.99R
LAND O LAKES   CLOUDY    34  28  77 CALM      30.00R
PHILLIPS       MOSUNNY   33  30  90 CALM      29.99S
TOMAHAWK       SUNNY     33  31  92 CALM      30.01R
MEDFORD        MOSUNNY   32  31  94 NE3       29.99S
MERRILL        NOT AVBL
$$

WIZ029-030-035-036-043>047-191600-
CENTRAL WISCONSIN

CITY           SKY/WX    TMP DP  RH WIND       PRES   REMARKS
WAUSAU         SUNNY     36  32  85 CALM      29.99S
MOSINEE        MOSUNNY   39  36  87 CALM      30.01R
MARSHFIELD     SUNNY     40  33  76 CALM      30.00R
STEVENS POINT  SUNNY     33  31  92 CALM      30.01S
WAUPACA        SUNNY     46  35  66 CALM      30.02S
WAUTOMA        SUNNY     40  35  83 CALM      30.03R
WISC RAPIDS    SUNNY     41  33  73 CALM      30.02S
CAMP DOUGLAS   NOT AVBL
$$

WIZ011>013-019>022-031-037>040-048>050-191600-
NORTHEAST WISCONSIN

CITY           SKY/WX    TMP DP  RH WIND       PRES   REMARKS
ANTIGO         SUNNY     31  29  93 CALM      30.00S
SHAWANO        SUNNY     44  34  68 CALM      30.03R
OCONTO         SUNNY     44  32  64 W5        30.02R
STURGEON BAY   SUNNY     45  32  60 W6        30.02R
GREEN BAY      SUNNY     49  37  63 CALM      30.03R
MANITOWOC      NOT AVBL
APPLETON       MOSUNNY   45  34  65 CALM      30.01R
CLINTONVILLE   SUNNY     43  32  65 CALM      30.02R
OSHKOSH        SUNNY     45  34  65 NW6       30.02R
$$

WIZ032>034-041-042-053>061-191600-
SOUTHWEST WISCONSIN

CITY           SKY/WX    TMP DP  RH WIND       PRES   REMARKS
LA CROSSE      CLOUDY    36  32  85 S5        30.02R WCI  32
SPARTA         SUNNY     35  32  88 CALM      30.02R
VIROQUA        CLOUDY    42  34  73 CALM      30.00S
BOSCOBEL       MOSUNNY   36  31  82 CALM      30.04R
PRAIRIE DU CHI SUNNY     33  32  96 CALM      30.03S
PLATTEVILLE    SUNNY     44  38  80 E3        30.02S
$$

WIZ056-057-062-063-064-067-068-191600-
SOUTH CENTRAL WISCONSIN

CITY           SKY/WX    TMP DP  RH WIND       PRES   REMARKS
REEDSBURG      SUNNY     35  32  90 CALM      30.02S
BARABOO/DELLS  SUNNY     37  32  84 CALM      30.02S
LONE ROCK      NOT AVBL
MINERAL POINT  SUNNY     45  37  76 CALM      30.01S
MADISON        MOSUNNY   39  34  82 CALM      30.02S
MIDDLETON      SUNNY     43  37  79 CALM      30.03S
WATERTOWN      SUNNY     37  35  91 CALM      30.03R
MONROE         SUNNY     46  32  57 SE5       30.02S
JANESVILLE     MOSUNNY   39  37  93 CALM      30.04R
$$

WIZ051-052-058>065-066-070>072-191600-
SOUTHEAST WISCONSIN

CITY           SKY/WX    TMP DP  RH WIND       PRES   REMARKS
MILWAUKEE      MOSUNNY   53  34  48 N5        30.04R
WAUKESHA       SUNNY     45  34  65 CALM      30.04R
MILWAUKEE/TIMM SUNNY     48  32  53 CALM      30.04R
RACINE         SUNNY     50  33  52 CALM      30.05R
KENOSHA        SUNNY     49  35  58 NW3       30.04R
FOND DU LAC    SUNNY     43  32  65 SW5       30.03R
SHEBOYGAN      SUNNY     48  34  58 NW6       30.03R
WEST BEND      SUNNY     46  34  61 CALM      30.03R
JUNEAU         SUNNY     39  33  79 CALM      30.04S
$$

LSZ147-162-191600-
LAKE SUPERIOR

STATION/POSITION TIME  TEMP    WIND        PRES    WAVE
                       AIR SEA DIR/SP/G            HT/PER
                 (UTC) (F)     (DEG/KT/KT) (MB)    (FT/S)
DEVILS ISLAND    1400   37      10/  3/  5 1016.3R
PORT WING        1430   33     130/  1/  2 1015.9R
SAXON HARBOR     1440   34     200/  2/  4 1015.9R
$$

LMZ867-665-643>646-191600-
LAKE MICHIGAN

STATION/POSITION TIME  TEMP    WIND        PRES    WAVE
                       AIR SEA DIR/SP/G            HT/PER
                 (UTC) (F)     (DEG/KT/KT) (MB)    (FT/S)
CHAMBERS ISLAND  1440   44     230/  3/  6 1015.6R
NORTHPORT PIER   1440   40     310/  5/ 10 1015.6R
KEWAUNEE LAKESHO 1430   43     300/  4/  7 1015.9R
SHEBOYGAN LAKESH 1400   47     300/  5/  7 1016.2R
PORT WASHINGTON  1440   51     320/  5/  7 1017.9R
MILWAUKEE LAKESH 1430   50     310/  4/  5   N/A
KENOSHA   LAKESH 1400   47     280/  4/  6 1016.6
$$

TC  - TEMPERATURE IN CELSIUS
VSB - VISIBILITY IN STATUTE MILES
WCI - WIND CHILL INDEX
HX  - HEAT INDEX





USA.gov is the U.S. government's official web portal to all federal, state and local government web resources and services.